TimeAKST,TemperatureF,Dew PointF,Humidity,Sea Level PressureIn,VisibilityMPH,Wind Direction,Wind SpeedMPH,Gust SpeedMPH,PrecipitationIn,Events,Conditions,WindDirDegrees,DateUTC
12:53 AM,34.0,32.0,92,30.09,7.0,ENE,3.5,-,N/A,,Overcast,60,2014-01-22 09:53:00
1:53 AM,35.1,33.1,92,30.08,8.0,ESE,6.9,-,N/A,,Overcast,120,2014-01-22 10:53:00
3:53 AM,41.0,37.0,86,30.10,10.0,East,13.8,-,N/A,,Overcast,100,2014-01-22 12:53:00
4:53 AM,42.1,37.9,85,30.10,10.0,East,12.7,-,N/A,,Overcast,100,2014-01-22 13:53:00
5:53 AM,42.1,37.9,85,30.13,10.0,East,13.8,-,0.00,Rain,Light Rain,80,2014-01-22 14:53:00
6:53 AM,42.1,39.9,92,30.15,9.0,East,13.8,-,0.00,Rain,Light Rain,90,2014-01-22 15:53:00
7:53 AM,42.1,41.0,96,30.15,8.0,East,12.7,-,0.00,,Overcast,80,2014-01-22 16:53:00
8:07 AM,42.1,41.0,96,30.15,10.0,East,16.1,-,0.00,Rain,Light Rain,80,2014-01-22 17:07:00
8:53 AM,43.0,41.0,93,30.17,10.0,East,12.7,-,0.00,Rain,Light Rain,90,2014-01-22 17:53:00
9:53 AM,44.1,41.0,89,30.18,10.0,East,13.8,-,0.01,Rain,Light Rain,80,2014-01-22 18:53:00
10:53 AM,44.1,42.1,93,30.19,8.0,ESE,19.6,-,0.00,Rain,Light Rain,110,2014-01-22 19:53:00
11:53 AM,44.1,42.1,93,30.18,6.0,ESE,18.4,-,0.10,Rain,Heavy Rain,110,2014-01-22 20:53:00
12:53 PM,44.1,41.0,89,30.18,8.0,East,17.3,-,0.33,Rain,Heavy Rain,100,2014-01-22 21:53:00
1:53 PM,43.0,41.0,93,30.18,8.0,ESE,13.8,-,0.13,Rain,Light Rain,110,2014-01-22 22:53:00
2:53 PM,44.1,41.0,89,30.17,4.0,East,16.1,-,0.11,Rain,Rain,100,2014-01-22 23:53:00
3:53 PM,45.0,42.1,90,30.19,6.0,East,16.1,-,0.07,Rain,Light Rain,100,2014-01-23 00:53:00
4:53 PM,45.0,42.1,90,30.20,6.0,East,16.1,-,0.09,Rain,Light Rain,100,2014-01-23 01:53:00
5:53 PM,44.1,42.1,93,30.21,7.0,ESE,16.1,-,0.07,Rain,Light Rain,110,2014-01-23 02:53:00
6:53 PM,45.0,42.1,90,30.22,5.0,ESE,17.3,-,0.07,Rain,Light Rain,110,2014-01-23 03:53:00
7:53 PM,45.0,43.0,93,30.23,5.0,ESE,18.4,-,0.08,Rain,Light Rain,120,2014-01-23 04:53:00
8:53 PM,45.0,43.0,93,30.23,5.0,ESE,16.1,-,0.05,Rain,Light Rain,110,2014-01-23 05:53:00
9:53 PM,46.0,44.1,93,30.24,3.0,ESE,18.4,-,0.02,Rain,Light Rain,120,2014-01-23 06:53:00
10:39 PM,46.0,44.1,93,30.24,5.0,ESE,18.4,27.6,0.00,Rain,Light Rain,110,2014-01-23 07:39:00
10:53 PM,46.0,44.1,93,30.24,6.0,ESE,19.6,-,0.00,Rain,Light Rain,110,2014-01-23 07:53:00
11:53 PM,46.9,44.1,90,30.27,5.0,ESE,20.7,-,0.03,Rain,Rain,110,2014-01-23 08:53:00